Flag for Israel Weather past 2 weeks in Petah Tikva, Israel

Now
54 °F

Fog.


Feels Like: 54 °F
Forecast: 58 / 68 °F
Wind: No wind

Location: Ben Gurion International Airport

Current Time: Jan 26, 2015 at 6:54:30 AM

Latest Report: Jan 26, 2015 at 6:20 AM


Visibility: 3 mi

Pressure: 30.09 "Hg

Humidity: 88%

Dew point: 50 °F

Location of Petah TikvaLocation

Historic Weather in Petah Tikva — Graph

°F

Petah Tikva temperature yesterday

Maximum temperature yesterday: 72 °F (at 1:50 PM)
Minimum temperature yesterday: 48 °F (at 6:50 AM)
Average temperature yesterday: 59 °F

Past Weeks' High & Low Weather Summary

 TemperatureHumidityPressure
High77 °F (Jan 21, 2:20 PM)100% (Jan 18, 4:20 AM)30.36 "Hg (Jan 18, 4:20 AM)
Low41 °F (Jan 12, 3:20 AM)22% (Jan 24, 1:50 PM)29.92 "Hg (Jan 24, 1:20 AM)
Average55 °F71%30.14 "Hg
* Reported Jan 11 6:20 AM — Jan 26 6:20 AM, Petah Tikva, Weather by CustomWeather, © 2014

Note: Actual official high and low records may vary slightly from our data, if they occured in-between our weather recording intervals... More about our weather records

Advertising

Petah Tikva weather history for previous 24 hours

 ConditionsComfort  
Time TempWeatherWind HumidityBarometerVisibility
6:20 AM
Jan 26
54 °FFog.No wind88%30.09 "Hg3 mi
5:50 AM52 °FFog.1 mph94%30.09 "Hg3 mi
5:20 AM54 °FFog.1 mph88%30.07 "Hg3 mi
4:50 AM54 °FFog.3 mph88%30.07 "Hg3 mi
4:20 AM54 °FFog.3 mph88%30.07 "Hg3 mi
3:50 AM54 °FFog.2 mph88%30.07 "Hg2 mi
3:20 AM54 °FFog.3 mph88%30.07 "Hg2 mi
2:50 AM54 °FFog.5 mph94%30.07 "Hg2 mi
2:20 AM55 °FFog.2 mph88%30.07 "Hg2 mi
1:50 AM55 °FFog.1 mph88%30.07 "Hg2 mi
1:20 AM55 °FFog.3 mph88%30.07 "Hg1 mi
12:50 AM55 °FFog.3 mph94%30.07 "Hg2 mi
12:20 AM55 °FFog.3 mph94%30.07 "Hg1 mi
11:20 PM
Jan 25
57 °FFog.2 mph88%30.07 "Hg2 mi
10:50 PM57 °FFog.3 mph94%30.07 "Hg2 mi
10:20 PM57 °FFog.2 mph94%30.04 "Hg2 mi
9:50 PM57 °FFog.3 mph88%30.07 "Hg2 mi
9:20 PM59 °FHaze.3 mph88%30.04 "Hg3 mi
8:50 PM59 °FHaze.3 mph82%30.07 "Hg3 mi
8:20 PM59 °FHaze.3 mph88%30.07 "Hg3 mi
7:50 PM61 °FHaze.1 mph83%30.07 "Hg3 mi
7:20 PM61 °FHaze.1 mph88%30.07 "Hg3 mi
6:50 PM61 °FHaze.3 mph88%30.04 "Hg3 mi
6:20 PM63 °FClear.1 mph83%30.04 "Hg4 mi
5:50 PM63 °FClear.2 mph83%30.04 "Hg4 mi
5:20 PM63 °FHaze.1 mph83%30.04 "Hg2 mi
4:50 PM63 °FHaze.3 mph83%30.04 "Hg3 mi
4:20 PM64 °FHaze.6 mph78%30.04 "Hg3 mi
3:50 PM64 °FHaze.8 mph78%30.04 "Hg3 mi
3:20 PM66 °FClear.8 mph73%30.01 "Hg4 mi
2:50 PM70 °FClear.5 mph57%30.01 "Hg5 mi
2:20 PM70 °FClear.3 mph57%29.98 "Hg5 mi
1:50 PM72 °FClear.2 mph50%29.98 "Hg5 mi
1:20 PM68 °FClear.3 mph60%30.01 "Hg5 mi
12:50 PM66 °FClear.3 mph60%30.01 "Hg5 mi
12:20 PM66 °FClear.6 mph52%30.01 "Hg5 mi
11:50 AM66 °FClear.1 mph56%30.01 "Hg5 mi
11:20 AM66 °FClear.3 mph56%30.04 "Hg6 mi
10:50 AM64 °FSunny.3 mph56%30.04 "Hg10 mi
10:20 AM64 °FSunny.3 mph56%30.04 "Hg10 mi
9:50 AM61 °FSunny.3 mph63%30.04 "Hg10 mi
9:20 AM61 °FSunny.3 mph59%30.04 "Hg10 mi
8:50 AM59 °FSunny.1 mph63%30.04 "Hg10 mi
8:20 AM55 °FSunny.2 mph67%30.01 "Hg10 mi
7:50 AM52 °FSunny.No wind77%30.01 "Hg10 mi
7:20 AM50 °FSunny.2 mph82%30.01 "Hg10 mi
6:50 AM48 °FSunny.1 mph87%29.98 "Hg10 mi
6:20 AM50 °FClear.2 mph82%29.98 "Hg10 mi
Weather by CustomWeather, © 2014

See weather overviewHow to use our weather pages